Location: San Gennaro Vesuviano
(40.8833°N, 14.5333°E)
Time: 11:10:37
(UTC+00:00)

SJ 16-02 - Pass Details

Date: 22 April 2021
Orbit: 605 x 617 km, 75.0° (Epoch: 11 May)

Event Time Altitude Azimuth Distance (km) Brightness Sun altitude
Exits shadow 23:17:23 11° 46° (NE) 1,929 4.4 -36.4°
Drops below altitude 10° 23:17:30 10° 45° (NE) 1,967 4.4 -36.4°
Sets 23:20:07 0° 31° (NNE) 2,894 5.6 -36.4°
